Tracking 19250 objects as of 24-Sep-2018
HD Live streaming from Space Station
objects crossing your sky now

GALILEO 23 (2C9)

Track GALILEO 23 (2C9) now!
GALILEO 23 (2C9) is classified as:


NORAD ID: 43566
Int'l Code: 2018-060C
Perigee: 23,238.0 km
Apogee: 23,259.6 km
Inclination: 56.4 °
Period: 845.5 minutes
Semi major axis: 29619 km
RCS: Unknown
Launch date: July 25, 2018
Source: European Space Agency (ESA)
Launch site: FRENCH GUIANA (FRGUI)
aabbcc
Your satellite tracking list
Your tracking list is empty




NASA's NSSDC Master Catalog

Two Line Element Set (TLE):
1 43566U 18060C   18265.51228600 -.00000022 +00000-0 +00000-0 0  9990
2 43566 056.3782 058.5099 0003642 219.3376 140.6476 01.70305984001038
Source of the keplerian elements: AFSPC